Location: Corralito
(10.2667°N, 66.9500°W)
Time: 20:15:23
(UTC+00:00)

Hubble Space Telescope - Visible Passes

Search period start: 28 September 2023 00:00
Search period end: 08 October 2023 00:00
Orbit: 521 x 525 km, 28.5° (Epoch: 28 September)

Date Brightness Start Highest point End Pass type
(mag) Time Alt. Az. Time Alt. Az. Time Alt. Az.
28 Sep 2.5 09:23:29 10° NNW 09:26:51 25° NNE 09:30:13 10° E visible
28 Sep 3.0 23:02:06 10° SSE 23:02:56 11° SSE 23:03:46 10° SE visible
29 Sep 2.2 09:08:56 17° NNW 09:11:24 31° NNE 09:15:00 10° E visible
29 Sep 2.8 22:45:20 10° S 22:47:27 14° SSE 22:49:32 10° ESE visible
30 Sep 3.4 00:24:07 10° WSW 00:25:05 17° WSW 00:25:05 17° WSW visible
30 Sep 1.8 08:54:43 30° NNW 08:55:57 38° NNE 08:59:43 10° E visible
01 Oct 2.3 00:08:38 10° WSW 00:10:56 32° WSW 00:10:56 32° WSW visible
01 Oct 1.4 08:40:33 48° NNE 08:40:33 48° NNE 08:44:22 10° ESE visible
01 Oct 1.3 23:53:11 10° WSW 23:56:44 53° NW 23:56:44 53° NW visible
02 Oct 2.1 08:26:23 36° E 08:26:23 36° E 08:28:57 10° ESE visible
02 Oct 1.5 23:37:47 10° W 23:41:39 44° NNW 23:42:30 37° N visible
03 Oct 3.2 08:12:13 19° ESE 08:12:13 19° ESE 08:13:28 10° ESE visible
03 Oct 2.6 09:47:39 10° WSW 09:50:09 16° SSW 09:52:39 10° S visible
03 Oct 2.0 23:22:25 10° W 23:26:08 35° NNW 23:28:11 21° NNE visible
04 Oct 2.9 09:33:03 10° SW 09:34:37 12° SSW 09:36:18 10° S visible
04 Oct 2.3 23:07:07 10° W 23:10:38 28° NNW 23:13:47 12° NNE visible
05 Oct 2.6 22:51:51 10° WNW 22:55:07 23° NNW 22:58:22 10° NNE visible
06 Oct 2.9 22:36:38 10° WNW 22:39:36 19° NNW 22:42:34 10° NNE visible
